| time (UTC) | temp F | wind direction | speed knots | gust knots | rain 1hr in | rain 24hr in | rain mn in | humidity % | barometer mb |
| 20260903014020 | 80 | 119 | 7.8 | 14.8 | 0.00 | 0.00 | 0.00 | 58 | 1002.6 |
| 20260903013523 | 81 | 105 | 7.0 | 12.2 | 0.00 | 0.00 | 0.00 | 57 | 1002.6 |
| 20260903013022 | 81 | 126 | 6.1 | 12.2 | 0.00 | 0.00 | 0.00 | 57 | 1002.5 |
| 20260903012620 | 81 | 108 | 5.2 | 13.0 | 0.00 | 0.00 | 0.00 | 56 | 1002.6 |
| 20260903012020 | 82 | 116 | 6.1 | 13.0 | 0.00 | 0.00 | 0.00 | 56 | 1002.6 |
| 20260903011523 | 82 | 120 | 8.7 | 13.9 | 0.00 | 0.00 | 0.00 | 55 | 1002.7 |
| 20260903011019 | 82 | 126 | 7.8 | 13.9 | 0.00 | 0.00 | 0.00 | 54 | 1002.6 |
| 20260903010523 | 83 | 114 | 6.1 | 13.0 | 0.00 | 0.00 | 0.00 | 53 | 1002.6 |
| 20260903010020 | 83 | 107 | 7.0 | 14.8 | 0.00 | 0.00 | 0.00 | 51 | 1002.7 |
| 20260903005520 | 84 | 123 | 8.7 | 14.8 | 0.00 | 0.00 | 0.00 | 49 | 1002.6 |
| 20260903005020 | 84 | 130 | 9.6 | 14.8 | 0.00 | 0.00 | 0.00 | 49 | 1002.8 |
| 20260903004519 | 84 | 132 | 9.6 | 16.5 | 0.00 | 0.00 | 0.00 | 49 | 1002.7 |
| 20260903004019 | 84 | 128 | 12.2 | 16.5 | 0.00 | 0.00 | 0.00 | 50 | 1002.7 |
| 20260903003520 | 84 | 130 | 12.2 | 16.5 | 0.00 | 0.00 | 0.00 | 50 | 1002.5 |
| 20260903003022 | 84 | 138 | 7.0 | 15.6 | 0.00 | 0.00 | 0.00 | 50 | 1002.5 |
| 20260903002619 | 85 | 92 | 7.0 | 14.8 | 0.00 | 0.00 | 0.00 | 49 | 1002.4 |
| 20260903002015 | 85 | 126 | 7.8 | 14.8 | 0.00 | 0.00 | 0.00 | 48 | 1002.5 |
| 20260903001517 | 85 | 114 | 10.4 | 14.8 | 0.00 | 0.00 | 0.00 | 47 | 1002.5 |
| 20260903001015 | 85 | 134 | 8.7 | 14.8 | 0.00 | 0.00 | 0.00 | 47 | 1002.7 |
| 20260903000515 | 85 | 120 | 9.6 | 14.8 | 0.00 | 0.00 | 0.00 | 47 | 1002.8 |
| 20260903000014 | 86 | 138 | 9.6 | 14.8 | 0.00 | 0.00 | 0.00 | 47 | 1002.6 |
| 20260902235514 | 85 | 144 | 7.0 | 14.8 | 0.00 | 0.00 | 0.00 | 48 | 1002.8 |
| 20260902235018 | 85 | 140 | 9.6 | 15.6 | 0.00 | 0.00 | 0.00 | 48 | 1002.7 |
| 20260902234521 | 85 | 128 | 7.8 | 15.6 | 0.00 | 0.00 | 0.00 | 49 | 1002.7 |
| 20260902234014 | 84 | 127 | 8.7 | 15.6 | 0.00 | 0.00 | 0.00 | 48 | 1002.6 |
| 20260902233513 | 84 | 136 | 7.8 | 15.6 | 0.00 | 0.00 | 0.00 | 48 | 1002.7 |
| 20260902233012 | 84 | 134 | 11.3 | 15.6 | 0.00 | 0.00 | 0.00 | 48 | 1002.7 |
| 20260902232615 | 85 | 127 | 7.8 | 13.9 | 0.00 | 0.00 | 0.00 | 48 | 1002.7 |
| 20260902232013 | 85 | 165 | 7.8 | 13.9 | 0.00 | 0.00 | 0.00 | 48 | 1002.8 |
| 20260902231514 | 85 | 142 | 9.6 | 17.4 | 0.00 | 0.00 | 0.00 | 47 | 1002.8 |
| 20260902231013 | 85 | 104 | 9.6 | 20.0 | 0.00 | 0.00 | 0.00 | 47 | 1002.9 |
| 20260902230511 | 86 | 146 | 13.0 | 20.0 | 0.00 | 0.00 | 0.00 | 45 | 1002.9 |
| 20260902230012 | 87 | 140 | 11.3 | 17.4 | 0.00 | 0.00 | 0.00 | 45 | 1002.8 |
| 20260902225512 | 87 | 155 | 11.3 | 17.4 | 0.00 | 0.00 | 0.00 | 45 | 1002.9 |
| 20260902225012 | 87 | 140 | 11.3 | 16.5 | 0.00 | 0.00 | 0.00 | 45 | 1002.9 |
| 20260902224511 | 87 | 129 | 10.4 | 20.9 | 0.00 | 0.00 | 0.00 | 45 | 1003.0 |
| 20260902224011 | 87 | 149 | 10.4 | 20.9 | 0.00 | 0.00 | 0.00 | 45 | 1002.9 |
| 20260902223514 | 87 | 124 | 9.6 | 15.6 | 0.00 | 0.00 | 0.00 | 44 | 1002.8 |
| 20260902223021 | 87 | 127 | 10.4 | 18.2 | 0.00 | 0.00 | 0.00 | 44 | 1002.8 |
| 20260902222612 | 87 | 172 | 10.4 | 14.8 | 0.00 | 0.00 | 0.00 | 43 | 1003.0 |
| 20260902222037 | 87 | 176 | 10.4 | 14.8 | 0.00 | 0.00 | 0.00 | 43 | 1003.0 |
| 20260902221530 | 88 | 140 | 8.7 | 16.5 | 0.00 | 0.00 | 0.00 | 43 | 1002.9 |
| 20260902221029 | 87 | 115 | 8.7 | 16.5 | 0.00 | 0.00 | 0.00 | 44 | 1003.0 |
| 20260902220532 | 87 | 153 | 10.4 | 18.2 | 0.00 | 0.00 | 0.00 | 44 | 1003.0 |
| 20260902220029 | 87 | 138 | 10.4 | 18.2 | 0.00 | 0.00 | 0.00 | 43 | 1003.1 |
| 20260902215530 | 87 | 165 | 9.6 | 15.6 | 0.00 | 0.00 | 0.00 | 45 | 1003.0 |
| 20260902215028 | 87 | 146 | 13.0 | 15.6 | 0.00 | 0.00 | 0.00 | 44 | 1003.1 |
| 20260902214527 | 87 | 143 | 9.6 | 16.5 | 0.00 | 0.00 | 0.00 | 44 | 1003.4 |
| 20260902214033 | 88 | 138 | 10.4 | 15.6 | 0.00 | 0.00 | 0.00 | 44 | 1003.3 |
| 20260902213525 | 87 | 126 | 8.7 | 18.2 | 0.00 | 0.00 | 0.00 | 45 | 1003.4 |
| 20260902213029 | 87 | 136 | 10.4 | 18.2 | 0.00 | 0.00 | 0.00 | 46 | 1003.5 |
| 20260902212524 | 87 | 134 | 9.6 | 19.1 | 0.00 | 0.00 | 0.00 | 46 | 1003.6 |
| 20260902212006 | 87 | 145 | 8.7 | 19.1 | 0.00 | 0.00 | 0.00 | 45 | 1003.7 |
| 20260902211505 | 87 | 140 | 11.3 | 16.5 | 0.00 | 0.00 | 0.00 | 45 | 1003.8 |
| 20260902211007 | 86 | 169 | 11.3 | 16.5 | 0.00 | 0.00 | 0.00 | 46 | 1003.7 |
| 20260902210503 | 87 | 140 | 11.3 | 18.2 | 0.00 | 0.00 | 0.00 | 46 | 1003.9 |
| 20260902210003 | 87 | 146 | 9.6 | 18.2 | 0.00 | 0.00 | 0.00 | 45 | 1003.8 |
| 20260902205504 | 87 | 131 | 9.6 | 16.5 | 0.00 | 0.00 | 0.00 | 46 | 1003.8 |
| 20260902205002 | 87 | 146 | 8.7 | 18.2 | 0.00 | 0.00 | 0.00 | 47 | 1004.0 |
| 20260902204600 | 86 | 113 | 10.4 | 18.2 | 0.00 | 0.00 | 0.00 | 46 | 1004.0 |
| 20260902204058 | 86 | 146 | 8.7 | 18.2 | 0.00 | 0.00 | 0.00 | 46 | 1004.2 |
| 20260902203601 | 86 | 117 | 13.9 | 18.2 | 0.00 | 0.00 | 0.00 | 47 | 1004.3 |
| 20260902203105 | 86 | 150 | 8.7 | 20.0 | 0.00 | 0.00 | 0.00 | 48 | 1004.3 |
| 20260902202556 | 86 | 138 | 11.3 | 19.1 | 0.00 | 0.00 | 0.00 | 48 | 1004.6 |
| 20260902201607 | 86 | 146 | 11.3 | 18.2 | 0.00 | 0.00 | 0.00 | 47 | 1004.6 |
| 20260902201103 | 86 | 137 | 7.8 | 18.2 | 0.00 | 0.00 | 0.00 | 48 | 1004.5 |
| 20260902200559 | 85 | 94 | 12.2 | 18.2 | 0.00 | 0.00 | 0.00 | 48 | 1004.7 |
| 20260902200133 | 85 | 132 | 11.3 | 18.2 | 0.00 | 0.00 | 0.00 | 49 | 1004.8 |
| 20260902195557 | 85 | 140 | 11.3 | 18.2 | 0.00 | 0.00 | 0.00 | 49 | 1004.7 |
| 20260902195055 | 85 | 170 | 9.6 | 18.2 | 0.00 | 0.00 | 0.00 | 49 | 1004.9 |
| 20260902194555 | 85 | 136 | 9.6 | 20.0 | 0.00 | 0.00 | 0.00 | 49 | 1004.9 |
| 20260902194056 | 85 | 155 | 11.3 | 20.9 | 0.00 | 0.00 | 0.00 | 50 | 1005.0 |
| 20260902193552 | 84 | 136 | 8.7 | 18.2 | 0.00 | 0.00 | 0.00 | 50 | 1005.0 |
| 20260902193051 | 85 | 149 | 9.6 | 17.4 | 0.00 | 0.00 | 0.00 | 50 | 1005.1 |
| 20260902192549 | 84 | 150 | 9.6 | 19.1 | 0.00 | 0.00 | 0.00 | 51 | 1005.1 |
| 20260902192019 | 84 | 109 | 10.4 | 19.1 | 0.00 | 0.00 | 0.00 | 51 | 1005.1 |
| 20260902191517 | 84 | 148 | 12.2 | 22.6 | 0.00 | 0.00 | 0.00 | 51 | 1005.4 |
| 20260902191015 | 84 | 138 | 13.9 | 22.6 | 0.00 | 0.00 | 0.00 | 52 | 1005.4 |
| 20260902190514 | 84 | 107 | 11.3 | 21.7 | 0.00 | 0.00 | 0.00 | 51 | 1005.6 |
| 20260902190024 | 83 | 167 | 13.0 | 21.7 | 0.00 | 0.00 | 0.00 | 52 | 1005.6 |
| 20260902185513 | 84 | 140 | 13.9 | 24.3 | 0.00 | 0.00 | 0.00 | 51 | 1005.7 |
| 20260902185013 | 84 | 150 | 13.9 | 22.6 | 0.00 | 0.00 | 0.00 | 52 | 1005.6 |
| 20260902184510 | 83 | 132 | 11.3 | 19.1 | 0.00 | 0.00 | 0.00 | 52 | 1005.8 |
| 20260902184009 | 81 | 136 | 9.6 | 20.0 | 0.00 | 0.00 | 0.00 | 54 | 1006.0 |
| 20260902183508 | 82 | 123 | 11.3 | 20.0 | 0.00 | 0.00 | 0.00 | 54 | 1006.0 |
| 20260902183008 | 82 | 138 | 13.0 | 23.5 | 0.00 | 0.00 | 0.00 | 53 | 1006.2 |
| 20260902182607 | 82 | 131 | 9.6 | 19.1 | 0.00 | 0.00 | 0.00 | 53 | 1006.1 |
| 20260902181535 | 82 | 136 | 12.2 | 20.0 | 0.00 | 0.00 | 0.00 | 54 | 1006.3 |
| 20260902181034 | 82 | 140 | 10.4 | 20.9 | 0.00 | 0.00 | 0.00 | 53 | 1006.3 |
| 20260902180534 | 82 | 219 | 10.4 | 20.9 | 0.00 | 0.00 | 0.00 | 54 | 1006.4 |
| 20260902180033 | 81 | 137 | 11.3 | 18.2 | 0.00 | 0.00 | 0.00 | 54 | 1006.5 |
| 20260902175532 | 81 | 103 | 12.2 | 21.7 | 0.00 | 0.00 | 0.00 | 55 | 1006.7 |
| 20260902175034 | 81 | 134 | 13.9 | 21.7 | 0.00 | 0.00 | 0.00 | 55 | 1006.6 |
| 20260902174531 | 81 | 132 | 13.9 | 20.0 | 0.00 | 0.00 | 0.00 | 55 | 1006.6 |
| 20260902174031 | 81 | 134 | 12.2 | 19.1 | 0.00 | 0.00 | 0.00 | 55 | 1006.8 |
| 20260902173530 | 81 | 135 | 11.3 | 16.5 | 0.00 | 0.00 | 0.00 | 57 | 1006.9 |
| 20260902173029 | 80 | 152 | 7.8 | 19.1 | 0.00 | 0.00 | 0.00 | 57 | 1006.9 |
| 20260902172527 | 80 | 140 | 10.4 | 19.1 | 0.00 | 0.00 | 0.00 | 58 | 1006.9 |
| 20260902171531 | 79 | 128 | 11.3 | 19.1 | 0.00 | 0.00 | 0.00 | 59 | 1007.2 |
| 20260902171030 | 79 | 154 | 10.4 | 18.2 | 0.00 | 0.00 | 0.00 | 60 | 1007.0 |
| 20260902170533 | 79 | 130 | 12.2 | 18.2 | 0.00 | 0.00 | 0.00 | 60 | 1007.2 |
| 20260902170029 | 78 | 136 | 11.3 | 17.4 | 0.00 | 0.00 | 0.00 | 61 | 1007.3 |
| 20260902165528 | 78 | 119 | 9.6 | 17.4 | 0.00 | 0.00 | 0.00 | 60 | 1007.5 |
| 20260902165027 | 78 | 144 | 11.3 | 18.2 | 0.00 | 0.00 | 0.00 | 60 | 1007.3 |
| 20260902164527 | 78 | 137 | 13.0 | 18.2 | 0.00 | 0.00 | 0.00 | 60 | 1007.3 |
| 20260902164026 | 78 | 123 | 7.8 | 14.8 | 0.00 | 0.00 | 0.00 | 61 | 1007.3 |
| 20260902163526 | 78 | 130 | 9.6 | 14.8 | 0.00 | 0.00 | 0.00 | 61 | 1007.3 |
| 20260902163025 | 77 | 169 | 7.0 | 14.8 | 0.00 | 0.00 | 0.00 | 62 | 1007.5 |
| 20260902162624 | 76 | 140 | 9.6 | 14.8 | 0.00 | 0.00 | 0.00 | 63 | 1007.5 |
| 20260902161519 | 75 | 138 | 8.7 | 15.6 | 0.00 | 0.00 | 0.00 | 67 | 1007.6 |
| 20260902161018 | 74 | 121 | 10.4 | 15.6 | 0.00 | 0.00 | 0.00 | 67 | 1007.7 |
| 20260902160516 | 74 | 141 | 8.7 | 13.0 | 0.00 | 0.00 | 0.00 | 68 | 1007.8 |
| 20260902160017 | 73 | 142 | 7.8 | 13.0 | 0.00 | 0.00 | 0.00 | 68 | 1007.7 |
| 20260902155515 | 73 | 136 | 7.8 | 12.2 | 0.00 | 0.00 | 0.00 | 68 | 1007.9 |
| 20260902155014 | 73 | 140 | 6.1 | 12.2 | 0.00 | 0.00 | 0.00 | 70 | 1007.8 |
| 20260902154512 | 72 | 175 | 5.2 | 12.2 | 0.00 | 0.00 | 0.00 | 71 | 1008.0 |
| 20260902154011 | 72 | 141 | 7.0 | 11.3 | 0.00 | 0.00 | 0.00 | 72 | 1008.2 |
| 20260902153510 | 71 | 141 | 6.1 | 13.0 | 0.00 | 0.00 | 0.00 | 73 | 1008.3 |
| 20260902153009 | 70 | 159 | 5.2 | 11.3 | 0.00 | 0.00 | 0.00 | 73 | 1008.5 |
| 20260902152508 | 69 | 207 | 4.3 | 12.2 | 0.00 | 0.00 | 0.00 | 73 | 1008.3 |
| 20260902151507 | 69 | 120 | 7.0 | 13.0 | 0.00 | 0.00 | 0.00 | 72 | 1008.5 |
| 20260902151009 | 69 | 146 | 8.7 | 13.0 | 0.00 | 0.00 | 0.00 | 71 | 1008.5 |
| 20260902150507 | 68 | 142 | 8.7 | 13.0 | 0.00 | 0.00 | 0.00 | 70 | 1008.6 |
| 20260902150006 | 68 | 144 | 8.7 | 12.2 | 0.00 | 0.00 | 0.00 | 67 | 1008.8 |
| 20260902145502 | 68 | 116 | 7.8 | 11.3 | 0.00 | 0.00 | 0.00 | 68 | 1008.6 |
| 20260902145100 | 67 | 144 | 8.7 | 12.2 | 0.00 | 0.00 | 0.00 | 67 | 1008.8 |
| 20260902144559 | 67 | 139 | 7.8 | 11.3 | 0.00 | 0.00 | 0.00 | 68 | 1008.8 |
| 20260902144058 | 66 | 163 | 6.1 | 9.6 | 0.00 | 0.00 | 0.00 | 67 | 1008.8 |
| 20260902143557 | 66 | 142 | 6.1 | 9.6 | 0.00 | 0.00 | 0.00 | 67 | 1008.8 |
| 20260902143056 | 65 | 126 | 5.2 | 9.6 | 0.00 | 0.00 | 0.00 | 67 | 1008.7 |
| 20260902142555 | 65 | 119 | 6.1 | 9.6 | 0.00 | 0.00 | 0.00 | 67 | 1008.8 |
| 20260902141559 | 65 | 143 | 4.3 | 8.7 | 0.00 | 0.00 | 0.00 | 68 | 1008.8 |
| 20260902141055 | 64 | 144 | 2.6 | 7.0 | 0.00 | 0.00 | 0.00 | 68 | 1008.9 |
| 20260902140553 | 64 | 174 | 4.3 | 7.8 | 0.00 | 0.00 | 0.00 | 68 | 1009.0 |
| 20260902140052 | 63 | 153 | 3.5 | 8.7 | 0.00 | 0.00 | 0.00 | 68 | 1008.9 |
| 20260902135551 | 63 | 161 | 3.5 | 8.7 | 0.00 | 0.00 | 0.00 | 69 | 1009.0 |
| 20260902135052 | 62 | 156 | 0.0 | 4.3 | 0.00 | 0.00 | 0.00 | 71 | 1009.0 |
| 20260902134551 | 61 | 156 | 0.0 | 2.6 | 0.00 | 0.00 | 0.00 | 71 | 1008.9 |
| 20260902134051 | 61 | 156 | 0.9 | 2.6 | 0.00 | 0.00 | 0.00 | 73 | 1009.1 |
| 20260902133551 | 60 | 156 | 0.9 | 2.6 | 0.00 | 0.00 | 0.00 | 74 | 1009.2 |
| 20260902133052 | 59 | 156 | 0.0 | 4.3 | 0.00 | 0.00 | 0.00 | 75 | 1009.2 |
| 20260902132553 | 58 | 156 | 0.0 | 4.3 | 0.00 | 0.00 | 0.00 | 77 | 1009.2 |
| 20260902131547 | 56 | 157 | 0.0 | 1.7 | 0.00 | 0.00 | 0.00 | 81 | 1009.1 |
| 20260902131047 | 55 | 147 | 0.0 | 1.7 | 0.00 | 0.00 | 0.00 | 81 | 1009.2 |
| 20260902130546 | 54 | 147 | 0.9 | 1.7 | 0.00 | 0.00 | 0.00 | 82 | 1009.3 |
| 20260902130046 | 54 | 147 | 0.9 | 1.7 | 0.00 | 0.00 | 0.00 | 83 | 1009.2 |
| 20260902125550 | 53 | 147 | 0.0 | 0.9 | 0.00 | 0.00 | 0.00 | 81 | 1009.3 |
| 20260902125047 | 53 | 147 | 0.0 | 0.0 | 0.00 | 0.00 | 0.00 | 82 | 1009.1 |
| 20260902124557 | 53 | 147 | 0.0 | 0.0 | 0.00 | 0.00 | 0.00 | 81 | 1009.1 |
| 20260902124050 | 53 | 147 | 0.0 | 0.0 | 0.00 | 0.00 | 0.00 | 80 | 1009.1 |
| 20260902123546 | 54 | 147 | 0.0 | 0.0 | 0.00 | 0.00 | 0.00 | 80 | 1009.0 |
| 20260902123047 | 54 | 147 | 0.0 | 0.0 | 0.00 | 0.00 | 0.00 | 80 | 1009.1 |
| 20260902122546 | 54 | 147 | 0.0 | 0.0 | 0.00 | 0.00 | 0.00 | 79 | 1009.0 |
| 20260902121549 | 55 | 147 | 0.0 | 1.7 | 0.00 | 0.00 | 0.00 | 77 | 1009.1 |
| 20260902121048 | 56 | 147 | 0.0 | 2.6 | 0.00 | 0.00 | 0.00 | 77 | 1008.9 |
| 20260902120548 | 56 | 147 | 0.9 | 10.4 | 0.00 | 0.00 | 0.00 | 78 | 1008.9 |
| 20260902120047 | 55 | 148 | 4.3 | 10.4 | 0.00 | 0.00 | 0.00 | 83 | 1009.0 |
| 20260902115547 | 54 | 118 | 0.0 | 3.5 | 0.00 | 0.00 | 0.00 | 81 | 1009.0 |
| 20260902115047 | 54 | 130 | 0.0 | 2.6 | 0.00 | 0.00 | 0.00 | 81 | 1009.1 |
| 20260902114548 | 54 | 130 | 0.0 | 2.6 | 0.00 | 0.00 | 0.00 | 82 | 1009.1 |
| 20260902114049 | 53 | 130 | 0.0 | 1.7 | 0.00 | 0.00 | 0.00 | 82 | 1009.0 |
| 20260902113547 | 53 | 130 | 0.0 | 1.7 | 0.00 | 0.00 | 0.00 | 82 | 1009.0 |
| 20260902113102 | 53 | 130 | 0.0 | 1.7 | 0.00 | 0.00 | 0.00 | 80 | 1009.1 |
| 20260902112548 | 54 | 130 | 0.0 | 0.9 | 0.00 | 0.00 | 0.00 | 79 | 1009.0 |
| 20260902111551 | 55 | 130 | 0.0 | 2.6 | 0.00 | 0.00 | 0.00 | 77 | 1009.0 |
| 20260902111042 | 56 | 132 | 0.0 | 2.6 | 0.00 | 0.00 | 0.00 | 77 | 1008.9 |
| 20260902110542 | 56 | 132 | 0.0 | 0.0 | 0.00 | 0.00 | 0.00 | 78 | 1009.0 |
| 20260902110042 | 56 | 132 | 0.0 | 0.0 | 0.00 | 0.00 | 0.00 | 78 | 1009.0 |
| 20260902105545 | 56 | 132 | 0.0 | 0.0 | 0.00 | 0.00 | 0.00 | 78 | 1009.0 |
| 20260902105042 | 56 | 132 | 0.0 | 0.0 | 0.00 | 0.00 | 0.00 | 78 | 1009.1 |
| 20260902104544 | 56 | 132 | 0.0 | 0.0 | 0.00 | 0.00 | 0.00 | 78 | 1009.2 |
| 20260902104041 | 56 | 132 | 0.0 | 0.0 | 0.00 | 0.00 | 0.00 | 76 | 1008.9 |
| 20260902103542 | 57 | 132 | 0.0 | 0.0 | 0.00 | 0.00 | 0.00 | 76 | 1008.9 |
| 20260902103042 | 57 | 132 | 0.0 | 0.9 | 0.00 | 0.00 | 0.00 | 76 | 1008.9 |
| 20260902102540 | 57 | 132 | 0.0 | 2.6 | 0.00 | 0.00 | 0.00 | 75 | 1009.0 |
| 20260902101541 | 58 | 132 | 2.6 | 6.1 | 0.00 | 0.00 | 0.00 | 75 | 1009.2 |
| 20260902101035 | 58 | 134 | 3.5 | 7.8 | 0.00 | 0.00 | 0.00 | 76 | 1009.4 |
| 20260902100535 | 57 | 139 | 2.6 | 7.0 | 0.00 | 0.00 | 0.00 | 77 | 1009.4 |
| 20260902100035 | 57 | 150 | 2.6 | 5.2 | 0.00 | 0.00 | 0.00 | 78 | 1009.3 |
| 20260902095535 | 56 | 181 | 1.7 | 3.5 | 0.00 | 0.00 | 0.00 | 78 | 1009.4 |
| 20260902095034 | 56 | 182 | 0.0 | 0.0 | 0.00 | 0.00 | 0.00 | 78 | 1009.4 |
| 20260902094540 | 56 | 182 | 0.0 | 0.0 | 0.00 | 0.00 | 0.00 | 78 | 1009.6 |
| 20260902094033 | 56 | 182 | 0.0 | 0.0 | 0.00 | 0.00 | 0.00 | 77 | 1009.7 |
| 20260902093533 | 56 | 182 | 0.0 | 0.0 | 0.00 | 0.00 | 0.00 | 76 | 1009.8 |
| 20260902093032 | 56 | 182 | 0.0 | 0.0 | 0.00 | 0.00 | 0.00 | 76 | 1009.6 |
| 20260902092533 | 57 | 182 | 0.0 | 0.0 | 0.00 | 0.00 | 0.00 | 76 | 1009.7 |
| 20260902091541 | 58 | 182 | 0.0 | 0.0 | 0.00 | 0.00 | 0.00 | 73 | 1009.6 |
| 20260902091031 | 58 | 182 | 0.0 | 0.0 | 0.00 | 0.00 | 0.00 | 74 | 1009.5 |
| 20260902090527 | 58 | 182 | 0.0 | 1.7 | 0.00 | 0.00 | 0.00 | 73 | 1009.5 |
| 20260902090026 | 59 | 182 | 0.0 | 2.6 | 0.00 | 0.00 | 0.00 | 72 | 1009.4 |
| 20260902085525 | 59 | 182 | 0.0 | 2.6 | 0.00 | 0.00 | 0.00 | 71 | 1009.4 |
| 20260902085025 | 60 | 182 | 0.0 | 2.6 | 0.00 | 0.00 | 0.00 | 71 | 1009.6 |
| 20260902084524 | 60 | 182 | 0.9 | 2.6 | 0.00 | 0.00 | 0.00 | 71 | 1009.8 |
| 20260902084024 | 60 | 182 | 0.9 | 5.2 | 0.00 | 0.00 | 0.00 | 71 | 1009.6 |
| 20260902083524 | 60 | 183 | 2.6 | 7.0 | 0.00 | 0.00 | 0.00 | 71 | 1009.6 |
| 20260902083022 | 60 | 180 | 2.6 | 7.0 | 0.00 | 0.00 | 0.00 | 72 | 1009.8 |
| 20260902082522 | 60 | 160 | 0.9 | 4.3 | 0.00 | 0.00 | 0.00 | 71 | 1009.7 |
| 20260902081523 | 60 | 165 | 0.0 | 0.0 | 0.00 | 0.00 | 0.00 | 72 | 1009.8 |
| 20260902081022 | 60 | 165 | 0.0 | 2.6 | 0.00 | 0.00 | 0.00 | 72 | 1009.6 |
| 20260902080522 | 59 | 165 | 0.0 | 4.3 | 0.00 | 0.00 | 0.00 | 73 | 1009.8 |
| 20260902080021 | 59 | 165 | 2.6 | 3.5 | 0.00 | 0.00 | 0.00 | 72 | 1009.7 |
| 20260902075523 | 59 | 175 | 0.0 | 0.0 | 0.00 | 0.00 | 0.00 | 73 | 1009.8 |
| 20260902075019 | 59 | 175 | 0.0 | 1.7 | 0.00 | 0.00 | 0.00 | 72 | 1010.0 |
| 20260902074519 | 59 | 175 | 0.0 | 3.5 | 0.00 | 0.00 | 0.00 | 72 | 1009.9 |
| 20260902074019 | 59 | 175 | 0.9 | 3.5 | 0.00 | 0.00 | 0.00 | 71 | 1009.8 |
| 20260902073520 | 60 | 175 | 1.7 | 3.5 | 0.00 | 0.00 | 0.00 | 70 | 1009.9 |
| 20260902073019 | 60 | 175 | 1.7 | 3.5 | 0.00 | 0.00 | 0.00 | 70 | 1009.9 |
| 20260902072515 | 60 | 175 | 0.0 | 3.5 | 0.00 | 0.00 | 0.00 | 70 | 1010.0 |
| 20260902071524 | 61 | 178 | 0.0 | 2.6 | 0.00 | 0.00 | 0.00 | 67 | 1009.9 |
| 20260902071014 | 61 | 178 | 0.9 | 2.6 | 0.00 | 0.00 | 0.00 | 67 | 1009.8 |
| 20260902070511 | 62 | 178 | 0.0 | 3.5 | 0.00 | 0.00 | 0.00 | 66 | 1010.1 |
| 20260902070016 | 62 | 178 | 0.0 | 3.5 | 0.00 | 0.00 | 0.00 | 66 | 1010.0 |
| 20260902065510 | 62 | 180 | 0.9 | 2.6 | 0.00 | 0.00 | 0.00 | 66 | 1010.1 |
| 20260902065011 | 62 | 180 | 0.9 | 3.5 | 0.00 | 0.00 | 0.00 | 65 | 1010.1 |
| 20260902064508 | 63 | 180 | 0.9 | 3.5 | 0.00 | 0.00 | 0.00 | 65 | 1010.1 |
| 20260902064007 | 63 | 180 | 0.9 | 4.3 | 0.00 | 0.00 | 0.00 | 64 | 1010.2 |
| 20260902063506 | 63 | 180 | 1.7 | 4.3 | 0.00 | 0.00 | 0.00 | 64 | 1010.3 |
| 20260902063009 | 63 | 139 | 0.0 | 1.7 | 0.00 | 0.00 | 0.00 | 63 | 1010.1 |
| 20260902062508 | 64 | 139 | 0.9 | 2.6 | 0.00 | 0.00 | 0.00 | 63 | 1009.9 |
| 20260902061506 | 64 | 132 | 1.7 | 3.5 | 0.00 | 0.00 | 0.00 | 62 | 1010.0 |
| 20260902061007 | 64 | 132 | 0.0 | 2.6 | 0.00 | 0.00 | 0.00 | 62 | 1010.1 |
| 20260902060507 | 64 | 132 | 0.0 | 0.0 | 0.00 | 0.00 | 0.00 | 62 | 1010.2 |
| 20260902060014 | 65 | 132 | 0.0 | 0.0 | 0.00 | 0.00 | 0.00 | 62 | 1010.2 |
| 20260902055509 | 65 | 132 | 0.0 | 0.0 | 0.00 | 0.00 | 0.00 | 61 | 1010.2 |
| 20260902055006 | 65 | 132 | 0.0 | 0.0 | 0.00 | 0.00 | 0.00 | 61 | 1010.2 |
| 20260902054511 | 66 | 132 | 0.0 | 0.0 | 0.00 | 0.00 | 0.00 | 61 | 1010.2 |
| 20260902054006 | 66 | 132 | 0.0 | 0.9 | 0.00 | 0.00 | 0.00 | 60 | 1010.1 |
| 20260902053505 | 66 | 132 | 0.0 | 1.7 | 0.00 | 0.00 | 0.00 | 60 | 1010.2 |
| 20260902053010 | 67 | 132 | 0.0 | 1.7 | 0.00 | 0.00 | 0.00 | 59 | 1010.2 |
| 20260902052505 | 67 | 132 | 0.9 | 3.5 | 0.00 | 0.00 | 0.00 | 59 | 1010.0 |
| 20260902051505 | 68 | 134 | 1.7 | 6.1 | 0.00 | 0.00 | 0.00 | 58 | 1010.2 |
| 20260902051005 | 68 | 124 | 0.9 | 6.1 | 0.00 | 0.00 | 0.00 | 58 | 1010.1 |
| 20260902050508 | 68 | 125 | 3.5 | 6.1 | 0.00 | 0.00 | 0.00 | 59 | 1010.1 |
| 20260902050009 | 67 | 123 | 3.5 | 6.1 | 0.00 | 0.00 | 0.00 | 59 | 1010.1 |
| 20260902045505 | 68 | 133 | 0.9 | 3.5 | 0.00 | 0.00 | 0.00 | 58 | 1010.0 |
| 20260902045004 | 69 | 134 | 0.9 | 3.5 | 0.00 | 0.00 | 0.00 | 57 | 1010.2 |
| 20260902044506 | 69 | 132 | 1.7 | 4.3 | 0.00 | 0.00 | 0.00 | 56 | 1010.1 |
| 20260902044005 | 69 | 140 | 2.6 | 4.3 | 0.00 | 0.00 | 0.00 | 56 | 1010.1 |
| 20260902043504 | 70 | 148 | 1.7 | 5.2 | 0.00 | 0.00 | 0.00 | 55 | 1010.2 |
| 20260902043004 | 70 | 145 | 0.9 | 6.1 | 0.00 | 0.00 | 0.00 | 55 | 1010.2 |
| 20260902042504 | 70 | 219 | 1.7 | 7.8 | 0.00 | 0.00 | 0.00 | 55 | 1010.3 |
| 20260902041506 | 70 | 152 | 0.9 | 4.3 | 0.00 | 0.00 | 0.00 | 54 | 1010.2 |
| 20260902041002 | 71 | 152 | 1.7 | 4.3 | 0.00 | 0.00 | 0.00 | 53 | 1010.1 |
| 20260902040506 | 71 | 169 | 2.6 | 4.3 | 0.00 | 0.00 | 0.00 | 53 | 1010.2 |
| 20260902040002 | 71 | 143 | 2.6 | 6.1 | 0.00 | 0.00 | 0.00 | 53 | 1010.1 |
| 20260902035502 | 71 | 138 | 3.5 | 7.0 | 0.00 | 0.00 | 0.00 | 52 | 1010.0 |
| 20260902035002 | 72 | 134 | 3.5 | 7.0 | 0.00 | 0.00 | 0.00 | 52 | 1010.0 |
| 20260902034503 | 72 | 126 | 3.5 | 7.0 | 0.00 | 0.00 | 0.00 | 52 | 1010.1 |
| 20260902034004 | 72 | 139 | 3.5 | 7.0 | 0.00 | 0.00 | 0.00 | 51 | 1010.1 |
| 20260902033502 | 72 | 142 | 2.6 | 6.1 | 0.00 | 0.00 | 0.00 | 51 | 1010.0 |
| 20260902033002 | 72 | 134 | 3.5 | 6.1 | 0.00 | 0.00 | 0.00 | 51 | 1010.0 |
| 20260902032503 | 72 | 130 | 3.5 | 7.0 | 0.00 | 0.00 | 0.00 | 50 | 1009.9 |
| 20260902031502 | 72 | 126 | 3.5 | 8.7 | 0.00 | 0.00 | 0.00 | 50 | 1009.9 |
| 20260902031002 | 72 | 140 | 5.2 | 8.7 | 0.00 | 0.00 | 0.00 | 51 | 1009.8 |
| 20260902030502 | 72 | 129 | 0.9 | 4.3 | 0.00 | 0.00 | 0.00 | 51 | 1009.8 |
| 20260902030002 | 72 | 130 | 1.7 | 4.3 | 0.00 | 0.00 | 0.00 | 51 | 1009.7 |
| 20260902025601 | 73 | 154 | 1.7 | 4.3 | 0.00 | 0.00 | 0.00 | 50 | 1009.8 |
| 20260902025100 | 73 | 154 | 1.7 | 4.3 | 0.00 | 0.00 | 0.00 | 49 | 1009.6 |
| 20260902024601 | 73 | 154 | 1.7 | 4.3 | 0.00 | 0.00 | 0.00 | 48 | 1009.6 |
| 20260902024100 | 74 | 154 | 1.7 | 4.3 | 0.00 | 0.00 | 0.00 | 48 | 1009.4 |
| 20260902023600 | 74 | 153 | 0.0 | 4.3 | 0.00 | 0.00 | 0.00 | 47 | 1009.6 |
| 20260902023113 | 74 | 182 | 0.9 | 6.1 | 0.00 | 0.00 | 0.00 | 47 | 1009.4 |
| 20260902022600 | 75 | 150 | 2.6 | 7.0 | 0.00 | 0.00 | 0.00 | 47 | 1009.4 |
| 20260902021501 | 75 | 170 | 3.5 | 7.8 | 0.00 | 0.00 | 0.00 | 46 | 1009.5 |
| 20260902021001 | 75 | 150 | 1.7 | 6.1 | 0.00 | 0.00 | 0.00 | 46 | 1009.3 |
| 20260902020501 | 76 | 134 | 2.6 | 7.8 | 0.00 | 0.00 | 0.00 | 45 | 1009.3 |
| 20260902020001 | 76 | 150 | 3.5 | 8.7 | 0.00 | 0.00 | 0.00 | 45 | 1009.2 |
| 20260902015502 | 76 | 140 | 4.3 | 9.6 | 0.00 | 0.00 | 0.00 | 44 | 1009.3 |
| 20260902015002 | 77 | 134 | 5.2 | 9.6 | 0.00 | 0.00 | 0.00 | 44 | 1009.2 |
| 20260902014501 | 77 | 137 | 7.0 | 9.6 | 0.00 | 0.00 | 0.00 | 44 | 1009.2 |